Weather History for Savannah Hunter, GA

Change the Weather History Date:

Sunday, October 23, 2011

  Actual Average Record
Temperature  
Mean Temperature 59 °F -  
Max Temperature 73 °F 74 °F 86 °F (2007)
Min Temperature 45 °F 54 °F 41 °F (1998)
Degree Days  
Heating Degree Days 6    
Growing Degree Days 9 (Base 50)    
Moisture  
Dew Point 50 °F    
Average Humidity 74    
Maximum Humidity 95    
Minimum Humidity 47    
Precipitation  
Precipitation 0.00 in - - ()
Sea Level Pressure  
Sea Level Pressure 30.06 in    
Wind  
Wind Speed 4 mph (North)    
Max Wind Speed 8 mph    
Max Gust Speed -    
Visibility 10 miles    
Events Rain    
Averages and records for this station are not official NWS values.
T = Trace of Precipitation, MM = Missing Value Source: NWS Daily Summary

Daily Weather History Graph

Daily Weather History Graph

Search for Another Location

Airport:

Trip Planner

Search our weather history database for the weather conditions in past years. The results will help you decide how hot, cold, wet, or windy it might be!

Date:

Astronomy

Oct. 23, 2011 Rise Set
Actual Time 7:33 AM EDT 6:43 PM EDT
Civil Twilight 7:08 AM EDT 7:08 PM EDT
Nautical Twilight 6:40 AM EDT 7:37 PM EDT
Astronomical Twilight 6:11 AM EDT 8:05 PM EDT
Moon 3:51 AM EDT (10/23) 4:23 PM EDT (10/23)
Length of Visible Light 11h 59m
Length of Day
11h 09m
Waning Crescent, 14% of the Moon is Illuminated
Oct 23
Waning Crescent
Oct 26
New
Nov 2
First Quarter
Nov 10
Full
Nov 18
Last Quarter

Hourly Weather History & Observations

Time (EDT) Temp. Windchill Dew Point Humidity Pressure Visibility Wind Dir Wind Speed Gust Speed Precip Events Conditions
12:55 AM 45.9 °F 44.6 °F 44.4 °F 95% 30.07 in 10.0 mi West 3.5 mph - N/A   Clear
1:55 AM 46.2 °F - 44.4 °F 93% 30.06 in 10.0 mi Calm Calm - N/A   Clear
2:55 AM 45.3 °F - 43.7 °F 94% 30.06 in 10.0 mi Calm Calm - N/A   Clear
3:55 AM 46.2 °F 45.0 °F 44.1 °F 92% 30.05 in 10.0 mi NW 3.5 mph - N/A   Clear
4:55 AM 49.6 °F - 45.7 °F 86% 30.05 in 10.0 mi North 3.5 mph - N/A   Partly Cloudy
5:55 AM 49.5 °F - 45.9 °F 87% 30.05 in 10.0 mi North 3.5 mph - N/A   Partly Cloudy
6:55 AM 48.9 °F - 46.2 °F 90% 30.06 in 10.0 mi North 4.6 mph - N/A   Clear
7:55 AM 45.9 °F 44.6 °F 44.4 °F 95% 30.07 in 10.0 mi NNW 3.5 mph - N/A   Clear
8:55 AM 52.7 °F - 48.0 °F 84% 30.10 in 10.0 mi North 4.6 mph - N/A   Overcast
9:55 AM 58.6 °F - 48.7 °F 70% 30.10 in 10.0 mi NNE 8.1 mph - N/A   Partly Cloudy
10:55 AM 64.4 °F - 48.0 °F 55% 30.10 in 10.0 mi NNE 8.1 mph - N/A   Clear
11:55 AM 68.5 °F - 48.6 °F 49% 30.10 in 10.0 mi North 8.1 mph - N/A   Partly Cloudy
12:55 PM 70.2 °F - 50.2 °F 49% 30.09 in 10.0 mi North 8.1 mph - N/A   Clear
1:55 PM 71.8 °F - 50.7 °F 47% 30.06 in 10.0 mi NNW 6.9 mph - N/A   Partly Cloudy
2:55 PM 72.7 °F - 51.3 °F 47% 30.04 in 10.0 mi West 6.9 mph - N/A   Clear
3:55 PM 73.0 °F - 51.6 °F 47% 30.02 in 10.0 mi Variable 3.5 mph - N/A   Clear
4:55 PM 72.5 °F - 51.6 °F 48% 30.02 in 10.0 mi East 4.6 mph - N/A   Clear
5:55 PM 70.7 °F - 52.5 °F 52% 30.02 in 10.0 mi East 3.5 mph - N/A   Scattered Clouds
6:55 PM 64.8 °F - 55.6 °F 72% 30.03 in 10.0 mi Calm Calm - N/A   Clear
7:05 PM 64.4 °F - 55.4 °F 73% 30.04 in 10.0 mi ESE 3.5 mph - N/A Rain Light Rain
7:14 PM 62.6 °F - 55.4 °F 77% 30.04 in 10.0 mi ESE 3.5 mph - N/A   Scattered Clouds
7:55 PM 63.0 °F - 56.7 °F 80% 30.05 in 10.0 mi Calm Calm - 0.00 in   Overcast
8:55 PM 60.8 °F - 56.7 °F 86% 30.07 in 10.0 mi West 4.6 mph - N/A   Mostly Cloudy
9:55 PM 59.5 °F - 55.8 °F 87% 30.08 in 10.0 mi Calm Calm - N/A   Partly Cloudy
10:55 PM 57.0 °F - 55.2 °F 94% 30.08 in 10.0 mi WNW 3.5 mph - N/A   Mostly Cloudy
11:55 PM 57.4 °F - 53.6 °F 87% 30.08 in 10.0 mi Calm Calm - N/A   Clear